Zurück zum Katalog

COSMOS 1823 DEB

AktivLEO
NORAD 39808·DEBRIS·🇷🇺 Russia

Gestartet Feb 20, 1987 von Plesetsk Cosmodrome

Loading…

Nächste Überflüge (nächste 24 Stunden)

TLE

VeraltetSource: Space-Track

Epoche: Sep 4, 2026, 13:24 UTC

1 39808U 87020EG  26247.55895998  .00000060  00000-0  54559-3 0  9991
2 39808  73.6262 297.4514 0046991  59.7708 300.7978 12.44549987556208

Verfolge COSMOS 1823 DEB in Echtzeit mit AllMySat

Download on the App Store